Zurück zum Katalog

FREGAT DEB

LostUNKNOWN
NORAD 46104·DEBRIS·🇷🇺 Russia

Gestartet Jul 18, 2011 von Baikonur Cosmodrome

Loading…

Nächste Überflüge (nächste 24 Stunden)

TLE

VeraltetSource: Space-Track

Epoche: Aug 10, 2020, 06:54 UTC

1 46104U 11037JP  20223.28752573  .00042808  00000-0  37886-1 0  9990
2 46104  51.1389 198.3423 1343861 225.9440 122.1619 11.91224560   504

Verfolge FREGAT DEB in Echtzeit mit AllMySat

Download on the App Store